Location: Asheville, NC
(35.6000°N, 82.5500°W)
Time: 09:41:14
(UTC-04:00)

Vanguard 1 Rocket - Pass Details

Date: 09 March 2018
Orbit: 653 x 4224 km, 34.3° (Epoch: 24 June)

Event Time Altitude Azimuth Distance (km) Brightness Sun altitude
Rises 23:42:00 0° 281° (WNW) 5,942 11.8 -56.1°
Reaches altitude 10° 23:45:12 10° 280° (W) 5,300 11.4 -56.4°
Enters shadow 23:54:30 46° 269° (W) 3,988 10.4 -57.1°
Maximum altitude 00:02:59 74° 200° (SSW) 3,858 - -57.7°
Drops below altitude 10° 00:29:20 10° 121° (ESE) 7,338 - -58.8°
Exits shadow 00:31:57 - 120° (ESE) 7,754 11.9 -58.8°
Sets 00:34:47 0° 119° (ESE) 8,199 12.1 -58.9°
